Location: Bothell
(47.7630°N, 122.2040°W)
Time: 05:09:43
(UTC-07:00)

Amateur Radio Satellites - All Passes

Search period start: 21 August 2017 04:39
Search period end: 22 August 2017 04:39
Location: Bothell, 47.7630°N, 122.2040°W

Satellite Date Start Highest point End Downlink Frequencies (MHz)
Time Altitude Azimuth
NO-84 21 Aug 04:40:01 04:42:17 21° 351° (N) 04:44:35 435.350 FM
STARS 21 Aug 04:55:03 04:58:51 29° 65° (ENE) 05:02:39 437.465
PCSat 21 Aug 04:59:16 05:01:03 11° 16° (NNE) 05:02:51 145.827
YUBILEINY 21 Aug 05:00:08 05:07:49 37° 276° (W) 05:15:28 435.215
SO-50 21 Aug 05:01:10 05:02:08 11° 12° (NNE) 05:03:05 436.795
ITUPSAT 1 21 Aug 05:02:31 05:04:40 13° 272° (W) 05:06:50 437.325
Gurwin Techsat 1B 21 Aug 05:14:43 05:17:07 13° 307° (NW) 05:19:30 435.225
ITAMSAT 1 21 Aug 05:17:39 05:22:49 69° 289° (WNW) 05:27:56 435.822/435.867
AO-85 21 Aug 05:23:31 05:26:25 20° 115° (ESE) 05:29:19 145.980
BEESAT 3 21 Aug 05:24:10 05:27:47 33° 118° (ESE) 05:31:25 437.485
AO-7 21 Aug 05:36:12 05:44:31 73° 294° (WNW) 05:52:45 .
BEESAT 2 21 Aug 05:39:44 05:42:22 17° 112° (ESE) 05:45:01 435.950
KKS-1 21 Aug 05:53:22 05:57:29 35° 263° (W) 06:01:35 437.445
CUBESAT XI-V 21 Aug 06:06:50 06:09:36 15° 272° (W) 06:12:23 437.345
XW-2F 21 Aug 06:08:01 06:08:48 10° 88° (E) 06:09:34 145.980 - 146.000
NO-84 21 Aug 06:17:58 06:20:22 23° 13° (NNE) 06:22:50 435.350 FM
DOVE 4 21 Aug 06:22:56 06:27:27 51° 99° (E) 06:31:40 437.250
STARS 21 Aug 06:31:08 06:35:06 33° 263° (W) 06:39:06 437.465
KAITUO 1B 21 Aug 06:31:15 06:33:37 16° 91° (E) 06:35:58 145.475/437.950
SO-50 21 Aug 06:40:19 06:44:09 26° 36° (NE) 06:48:00 436.795
PCSat 21 Aug 06:41:36 06:46:21 29° 40° (NE) 06:51:03 145.827
STRAND 1 21 Aug 06:45:07 06:49:38 33° 64° (ENE) 06:54:09 437.568
HO-68 21 Aug 06:52:32 06:56:14 15° 85° (E) 06:59:56 435.675
LilacSat-2 21 Aug 06:53:52 06:57:31 38° 98° (E) 07:01:08 437.200
XW-2D 21 Aug 06:57:37 07:01:17 40° 98° (E) 07:04:55 145.860 - 145.880
ITAMSAT 1 21 Aug 06:59:19 07:01:21 12° 308° (NW) 07:03:23 435.822/435.867
BEESAT 3 21 Aug 07:01:38 07:05:20 34° 317° (NW) 07:09:04 437.485
NUDT-PHONESAT 21 Aug 07:02:40 07:06:05 32° 97° (E) 07:09:29 437.300
AO-85 21 Aug 07:02:42 07:06:30 47° 314° (NW) 07:10:20 145.980
XW-2B 21 Aug 07:08:37 07:12:23 52° 100° (E) 07:16:09 145.730 - 145.750
BEESAT 2 21 Aug 07:15:42 07:19:40 60° 310° (NW) 07:23:43 435.950
SEEDS 21 Aug 07:24:01 07:24:30 10° 86° (E) 07:24:58 437.485
XW-2C 21 Aug 07:27:40 07:31:32 88° 94° (E) 07:35:24 145.795 - 145.815
CUTE-I 21 Aug 07:28:49 07:34:07 63° 102° (ESE) 07:39:23 437.470
AO-7 21 Aug 07:30:05 07:35:58 22° 316° (NW) 07:41:51 .
XW-2F 21 Aug 07:39:33 07:43:23 72° 285° (WNW) 07:47:12 145.980 - 146.000
FO-29 21 Aug 07:44:34 07:49:27 20° 55° (NE) 07:54:01 435.910
NO-84 21 Aug 07:55:05 07:58:03 81° 29° (NNE) 08:01:14 435.350 FM
XW-2A 21 Aug 07:59:10 08:01:24 16° 92° (E) 08:03:39 145.665 - 145.685
DOVE 4 21 Aug 08:01:21 08:04:45 21° 299° (WNW) 08:08:00 437.250
KAITUO 1B 21 Aug 08:04:12 08:07:51 46° 288° (WNW) 08:11:30 145.475/437.950
AAUSAT CUBESAT 2 21 Aug 08:06:48 08:08:59 14° 89° (E) 08:11:08 437.432
CUTE 1.7 + AOD 2 21 Aug 08:09:32 08:13:43 47° 99° (E) 08:17:51 437.475
UWE-3 21 Aug 08:17:16 08:20:19 19° 92° (E) 08:23:24 435.000/436.395/437.385
SO-50 21 Aug 08:20:27 08:24:58 62° 236° (SW) 08:29:31 436.795
STRAND 1 21 Aug 08:23:59 08:28:44 38° 263° (W) 08:33:30 437.568
PCSat 21 Aug 08:24:47 08:30:09 62° 241° (WSW) 08:35:29 145.827
CUBEBUG 2 21 Aug 08:24:50 08:28:44 36° 97° (E) 08:32:40 437.445
LilacSat-2 21 Aug 08:28:39 08:31:34 20° 295° (WNW) 08:34:28 437.200
XW-2D 21 Aug 08:32:26 08:35:12 19° 296° (WNW) 08:37:58 145.860 - 145.880
NUDT-PHONESAT 21 Aug 08:36:53 08:39:48 22° 294° (WNW) 08:42:44 437.300
HO-68 21 Aug 08:38:00 08:45:12 74° 105° (ESE) 08:52:21 435.675
BEESAT 3 21 Aug 08:43:32 08:44:05 10° 339° (NNW) 08:44:40 437.485
XW-2B 21 Aug 08:43:50 08:46:11 16° 298° (WNW) 08:48:32 145.730 - 145.750
AO-85 21 Aug 08:46:21 08:47:53 12° 336° (NNW) 08:49:25 145.980
O/OREOS (USA 219) 21 Aug 08:49:42 08:50:47 11° 97° (E) 08:51:53 437.305
ZACube-1 21 Aug 08:55:38 08:59:16 26° 95° (E) 09:02:57 437.345
BEESAT 2 21 Aug 08:56:02 08:58:15 14° 332° (NNW) 09:00:30 435.950
SEEDS 21 Aug 08:56:30 09:00:48 88° 278° (W) 09:05:03 437.485
PRISM 21 Aug 08:59:03 09:01:12 14° 59° (ENE) 09:03:20 437.425
UNISAT 6 21 Aug 09:00:45 09:03:51 20° 63° (ENE) 09:06:55 437.425
XW-2C 21 Aug 09:04:34 09:05:05 10° 301° (WNW) 09:05:37 145.795 - 145.815
CUTE-I 21 Aug 09:09:42 09:13:43 22° 301° (WNW) 09:17:45 437.470
AO-73 21 Aug 09:16:19 09:20:20 38° 98° (E) 09:24:23 145.935
FO-29 21 Aug 09:26:10 09:33:42 80° 73° (ENE) 09:40:28 435.910
XW-2A 21 Aug 09:31:09 09:34:16 34° 290° (WNW) 09:37:23 145.665 - 145.685
NO-84 21 Aug 09:33:24 09:35:08 14° 228° (SW) 09:36:55 435.350 FM
TIGRISAT 21 Aug 09:34:40 09:38:37 36° 69° (ENE) 09:42:33 435.000
AAUSAT CUBESAT 2 21 Aug 09:40:42 09:44:51 64° 287° (WNW) 09:48:59 437.432
CUTE 1.7 + AOD 2 21 Aug 09:46:03 09:49:14 21° 297° (WNW) 09:52:25 437.475
nSIGHT-1 21 Aug 09:49:08 09:50:17 12° 134° (SE) 09:51:28 .
M-CUBED/EXP-1 PRIME 21 Aug 09:51:06 09:53:41 15° 51° (NE) 09:56:19 437.505
UWE-3 21 Aug 09:52:57 09:57:01 47° 289° (WNW) 10:01:09 435.000/436.395/437.385
Tancredo 1 21 Aug 09:58:32 10:01:14 36° 147° (SSE) 10:03:58 437.200
Oscar 11 21 Aug 10:00:44 10:05:08 81° 103° (ESE) 10:09:30 .
CUBEBUG 2 21 Aug 10:01:48 10:05:13 25° 294° (WNW) 10:08:40 437.445
RS-15 21 Aug 10:17:57 10:27:35 29° 101° (ESE) 10:37:14 29.354- 29.394
Max Valier Satellite 21 Aug 10:22:30 10:25:39 26° 95° (E) 10:28:48 145.860
O/OREOS (USA 219) 21 Aug 10:24:58 10:29:26 90° 300° (WNW) 10:33:57 437.305
HO-68 21 Aug 10:26:30 10:32:21 28° 305° (NW) 10:38:11 435.675
ZACube-1 21 Aug 10:31:44 10:35:35 34° 292° (WNW) 10:39:31 437.345
PRISM 21 Aug 10:31:45 10:35:55 74° 256° (WSW) 10:40:07 437.425
SEEDS 21 Aug 10:34:21 10:35:48 12° 302° (WNW) 10:37:14 437.485
UNISAT 6 21 Aug 10:36:02 10:40:15 49° 260° (W) 10:44:25 437.425
DELFI C3 21 Aug 10:41:42 10:45:39 57° 101° (E) 10:49:32 145.870
AIST 2D 21 Aug 10:44:58 10:47:47 23° 67° (ENE) 10:50:37 435.315
AO-73 21 Aug 10:52:56 10:56:23 24° 295° (WNW) 10:59:54 145.935
NANOSAT C BR1 21 Aug 11:01:42 11:04:36 19° 62° (ENE) 11:07:32 145.865
POLYITAN 1 21 Aug 11:06:28 11:09:44 22° 64° (ENE) 11:13:01 437.675
TIGRISAT 21 Aug 11:11:53 11:15:25 24° 266° (W) 11:18:55 435.000
LO-87 21 Aug 11:12:24 11:12:50 10° 88° (E) 11:13:17 145.935 - 145.965
FO-29 21 Aug 11:13:37 11:19:16 23° 270° (W) 11:24:35 435.910
EO-88 21 Aug 11:15:03 11:18:45 84° 103° (ESE) 11:22:26 145.990 - 145.960
ISS 21 Aug 11:15:16 11:18:29 52° 149° (SSE) 11:21:41 437.550
QB50P2 21 Aug 11:21:02 11:24:48 33° 67° (ENE) 11:28:35 145.880/145.840
EO-79 21 Aug 11:21:37 11:25:19 31° 67° (ENE) 11:29:01 145.935-145.965
M-CUBED/EXP-1 PRIME 21 Aug 11:22:50 11:27:23 87° 68° (ENE) 11:32:06 437.505
nSIGHT-1 21 Aug 11:22:53 11:26:08 62° 151° (SSE) 11:29:22 .
Tancredo 1 21 Aug 11:33:32 11:36:23 50° 345° (NNW) 11:39:14 437.200
Oscar 11 21 Aug 11:38:31 11:40:40 14° 301° (WNW) 11:42:47 .
BUGSAT 1 21 Aug 11:50:18 11:52:44 16° 61° (ENE) 11:55:11 437.445
DUCHIFAT 1 21 Aug 11:50:34 11:54:35 48° 71° (ENE) 11:58:37 145.980
Max Valier Satellite 21 Aug 11:56:19 11:59:26 26° 292° (WNW) 12:02:33 145.860
BEESAT 3 21 Aug 12:00:51 12:03:01 14° 28° (NNE) 12:05:10 437.485
Oscar 19 21 Aug 12:02:28 12:05:13 15° 55° (NE) 12:08:01 437.125/150
O/OREOS (USA 219) 21 Aug 12:06:57 12:09:33 15° 316° (NW) 12:12:09 437.305
AO-85 21 Aug 12:10:23 12:12:33 14° 27° (NNE) 12:14:45 145.980
BEESAT 2 21 Aug 12:16:48 12:17:33 10° 21° (NNE) 12:18:17 435.950
DELFI C3 21 Aug 12:17:36 12:19:59 16° 298° (WNW) 12:22:21 145.870
AIST 2D 21 Aug 12:17:57 12:20:54 25° 265° (W) 12:23:53 435.315
RS-15 21 Aug 12:26:10 12:38:29 87° 125° (SE) 12:50:53 29.354- 29.394
NANOSAT C BR1 21 Aug 12:35:55 12:39:59 50° 260° (W) 12:44:05 145.865
POLYITAN 1 21 Aug 12:41:21 12:45:19 40° 262° (W) 12:49:17 437.675
ESTCUBE 1 21 Aug 12:42:27 12:47:01 70° 102° (ESE) 12:51:33 437.505/2401.250
LO-87 21 Aug 12:43:10 12:46:41 62° 286° (WNW) 12:50:09 145.935 - 145.965
VELOX 1 21 Aug 12:47:31 12:50:33 18° 91° (E) 12:53:33 145.980
SPROUT 21 Aug 12:50:20 12:53:45 23° 93° (E) 12:57:08 437.525
ISS 21 Aug 12:51:49 12:55:00 47° 348° (NNW) 12:58:13 437.550
QB50P2 21 Aug 12:57:04 13:00:38 26° 265° (W) 13:04:12 145.880/145.840
EO-79 21 Aug 12:57:26 13:01:04 28° 265° (W) 13:04:43 145.935-145.965
AO-7 21 Aug 12:58:28 13:03:19 17° 38° (NE) 13:08:10 .
nSIGHT-1 21 Aug 12:59:28 13:02:37 44° 350° (N) 13:05:47 .
M-CUBED/EXP-1 PRIME 21 Aug 13:00:20 13:02:24 13° 268° (W) 13:04:29 437.505
Tancredo 1 21 Aug 13:09:09 13:11:54 37° 5° (N) 13:14:39 437.200
Gurwin Techsat 1B 21 Aug 13:17:56 13:22:51 40° 66° (ENE) 13:27:47 435.225
BUGSAT 1 21 Aug 13:23:39 13:27:41 59° 259° (W) 13:31:42 437.445
50 SAT 21 Aug 13:26:13 13:28:04 14° 92° (E) 13:29:54 437.505
DUCHIFAT 1 21 Aug 13:27:39 13:30:31 18° 269° (W) 13:33:23 145.980
BEESAT 3 21 Aug 13:37:25 13:41:25 60° 49° (NE) 13:45:20 437.485
Oscar 19 21 Aug 13:38:37 13:43:46 83° 75° (ENE) 13:48:58 437.125/150
AO-85 21 Aug 13:49:39 13:53:48 54° 48° (NE) 13:58:14 145.980
BEESAT 2 21 Aug 13:52:44 13:56:29 34° 43° (NE) 14:00:12 435.950
UKube-1 21 Aug 14:00:07 14:03:15 19° 92° (E) 14:06:23 .
YUBILEINY 21 Aug 14:18:29 14:21:21 12° 69° (ENE) 14:24:14 435.215
ESTCUBE 1 21 Aug 14:20:28 14:23:18 16° 301° (WNW) 14:26:07 437.505/2401.250
DX 1 21 Aug 14:22:24 14:26:38 47° 99° (E) 14:30:49 434.975-435.025
VELOX 1 21 Aug 14:22:59 14:27:19 53° 289° (WNW) 14:31:36 145.980
SPROUT 21 Aug 14:25:50 14:29:46 38° 291° (WNW) 14:33:42 437.525
ISS 21 Aug 14:28:42 14:31:51 43° 8° (N) 14:35:01 437.550
nSIGHT-1 21 Aug 14:36:13 14:39:23 46° 11° (N) 14:42:32 .
RS-15 21 Aug 14:40:53 14:52:33 44° 334° (NNW) 15:04:06 29.354- 29.394
Tancredo 1 21 Aug 14:44:23 14:47:18 89° 175° (S) 14:50:12 437.200
AO-7 21 Aug 14:46:16 14:54:20 55° 61° (ENE) 15:02:25 .
50 SAT 21 Aug 14:57:44 15:00:56 40° 289° (WNW) 15:04:06 437.505
Gurwin Techsat 1B 21 Aug 14:58:06 15:02:51 33° 265° (W) 15:07:39 435.225
ITAMSAT 1 21 Aug 15:00:05 15:04:54 39° 66° (ENE) 15:09:43 435.822/435.867
BEESAT 3 21 Aug 15:15:58 15:18:33 17° 248° (WSW) 15:21:06 437.485
ITUPSAT 1 21 Aug 15:19:33 15:22:34 16° 90° (E) 15:25:34 437.325
Oscar 19 21 Aug 15:20:58 15:23:45 15° 272° (W) 15:26:34 437.125/150
BEESAT 2 21 Aug 15:30:34 15:34:13 32° 242° (WSW) 15:37:49 435.950
AO-85 21 Aug 15:30:36 15:33:56 22° 245° (WSW) 15:37:27 145.980
UKube-1 21 Aug 15:35:22 15:39:32 47° 290° (WNW) 15:43:39 .
DOVE 4 21 Aug 15:56:16 15:58:43 13° 56° (ENE) 16:01:08 437.250
MOZHAYETS 4 21 Aug 15:58:29 16:02:41 33° 96° (E) 16:06:52
DX 1 21 Aug 15:59:14 16:02:31 21° 298° (WNW) 16:05:47 434.975-435.025
ISS 21 Aug 16:05:13 16:08:28 67° 208° (SSW) 16:11:43 437.550
YUBILEINY 21 Aug 16:07:36 16:16:08 58° 91° (E) 16:24:38 435.215
nSIGHT-1 21 Aug 16:12:39 16:15:50 56° 210° (SSW) 16:19:01 .
Tancredo 1 21 Aug 16:20:18 16:22:06 15° 222° (SW) 16:23:55 437.200
BEESAT 21 Aug 16:21:10 16:25:54 61° 102° (ESE) 16:30:37 436.000
CUBESAT XI-V 21 Aug 16:21:42 16:24:05 14° 87° (E) 16:26:28 437.345
AO-7 21 Aug 16:39:34 16:47:20 41° 262° (W) 16:55:09 .
ITAMSAT 1 21 Aug 16:39:49 16:44:26 32° 264° (W) 16:49:05 435.822/435.867
ITUPSAT 1 21 Aug 16:56:06 17:00:51 67° 288° (WNW) 17:05:36 437.325
RS-15 21 Aug 16:57:55 17:08:59 36° 7° (N) 17:19:42 29.354- 29.394
KAITUO 1B 21 Aug 17:15:16 17:17:00 13° 61° (ENE) 17:18:46 145.475/437.950
CUTE-I 21 Aug 17:15:39 17:19:50 24° 60° (ENE) 17:24:01 437.470
HO-68 21 Aug 17:25:26 17:30:10 19° 48° (NE) 17:34:53 435.675
DOVE 4 21 Aug 17:30:20 17:35:36 76° 74° (ENE) 17:40:44 437.250
MOZHAYETS 4 21 Aug 17:35:43 17:39:47 31° 294° (WNW) 17:43:50
LilacSat-2 21 Aug 17:38:56 17:42:16 30° 68° (ENE) 17:45:38 437.200
KKS-1 21 Aug 17:40:29 17:44:31 33° 97° (E) 17:48:30 437.445
XW-2D 21 Aug 17:42:00 17:45:21 31° 68° (ENE) 17:48:44 145.860 - 145.880
ISS 21 Aug 17:42:58 17:44:26 13° 225° (SW) 17:45:54 437.550
NUDT-PHONESAT 21 Aug 17:45:10 17:48:12 25° 67° (ENE) 17:51:15 437.300
nSIGHT-1 21 Aug 17:51:21 17:51:37 10° 227° (SW) 17:51:54 .
XW-2B 21 Aug 17:52:52 17:56:24 39° 70° (ENE) 17:59:57 145.730 - 145.750
CUBESAT XI-V 21 Aug 17:57:17 18:02:02 78° 286° (WNW) 18:06:44 437.345
BEESAT 21 Aug 17:59:50 18:03:15 20° 300° (WNW) 18:06:39 436.000
YUBILEINY 21 Aug 18:05:22 18:13:21 37° 293° (WNW) 18:21:22 435.215
XW-2C 21 Aug 18:11:46 18:15:29 67° 74° (ENE) 18:19:16 145.795 - 145.815
STARS 21 Aug 18:16:34 18:20:31 33° 97° (E) 18:24:27 437.465
SEEDS 21 Aug 18:18:20 18:20:04 12° 58° (ENE) 18:21:48 437.485
XW-2F 21 Aug 18:23:09 18:26:53 86° 78° (ENE) 18:30:41 145.980 - 146.000
XW-2A 21 Aug 18:35:18 18:36:00 11° 61° (ENE) 18:36:42 145.665 - 145.685
ITUPSAT 1 21 Aug 18:36:40 18:37:47 11° 307° (NW) 18:38:55 437.325
KAITUO 1B 21 Aug 18:46:51 18:50:32 62° 260° (W) 18:54:16 145.475/437.950
O/OREOS (USA 219) 21 Aug 18:52:25 18:56:43 40° 57° (ENE) 19:01:02 437.305
CUTE-I 21 Aug 18:54:12 18:59:30 59° 259° (W) 19:04:48 437.470
AAUSAT CUBESAT 2 21 Aug 19:00:11 19:02:38 15° 61° (ENE) 19:05:06 437.432
CUTE 1.7 + AOD 2 21 Aug 19:05:03 19:09:09 50° 72° (ENE) 19:13:17 437.475
HO-68 21 Aug 19:09:40 19:16:48 75° 69° (ENE) 19:23:58 435.675
DOVE 4 21 Aug 19:10:28 19:13:46 17° 271° (W) 19:17:03 437.250
RS-15 21 Aug 19:12:30 19:24:36 60° 40° (NE) 19:36:04 29.354- 29.394
LilacSat-2 21 Aug 19:13:31 19:16:33 23° 266° (W) 19:19:40 437.200
XW-2D 21 Aug 19:16:36 19:19:35 22° 267° (W) 19:22:36 145.860 - 145.880
KKS-1 21 Aug 19:17:09 19:21:00 29° 295° (WNW) 19:24:49 437.445
UWE-3 21 Aug 19:17:34 19:20:51 23° 65° (ENE) 19:24:08 435.000/436.395/437.385
NUDT-PHONESAT 21 Aug 19:18:50 19:22:00 27° 265° (W) 19:25:12 437.300
Oscar 11 21 Aug 19:25:28 19:27:13 12° 58° (ENE) 19:28:58 .
CUBEBUG 2 21 Aug 19:26:00 19:30:02 44° 71° (ENE) 19:34:02 437.445
XW-2B 21 Aug 19:28:10 19:30:46 18° 268° (W) 19:33:23 145.730 - 145.750
CUBESAT XI-V 21 Aug 19:36:48 19:38:36 12° 305° (NW) 19:40:25 437.345
XW-2C 21 Aug 19:49:09 19:50:08 11° 272° (W) 19:51:07 145.795 - 145.815
SEEDS 21 Aug 19:50:53 19:55:06 85° 256° (WSW) 19:59:23 437.485
STARS 21 Aug 19:53:02 19:56:47 29° 295° (WNW) 20:00:32 437.465
ZACube-1 21 Aug 19:54:41 19:58:19 30° 67° (ENE) 20:01:57 437.345
XW-2A 21 Aug 20:04:57 20:08:15 61° 259° (W) 20:11:34 145.665 - 145.685
AO-73 21 Aug 20:14:56 20:18:51 43° 70° (ENE) 20:22:46 145.935
STRAND 1 21 Aug 20:30:24 20:35:26 56° 101° (E) 20:40:26 437.568
O/OREOS (USA 219) 21 Aug 20:32:10 20:35:57 26° 256° (WSW) 20:39:44 437.305
AAUSAT CUBESAT 2 21 Aug 20:33:28 20:37:36 64° 259° (W) 20:41:47 437.432
CUTE 1.7 + AOD 2 21 Aug 20:42:22 20:45:17 18° 270° (W) 20:48:12 437.475
UWE-3 21 Aug 20:53:14 20:57:08 38° 263° (W) 21:01:01 435.000/436.395/437.385
Oscar 11 21 Aug 20:58:22 21:02:41 88° 249° (WSW) 21:07:02 .
HO-68 21 Aug 20:59:37 21:05:13 24° 269° (W) 21:10:51 435.675
CUBEBUG 2 21 Aug 21:03:49 21:06:53 19° 268° (W) 21:09:56 437.445
Max Valier Satellite 21 Aug 21:04:52 21:07:35 20° 65° (ENE) 21:10:19 145.860
RS-15 21 Aug 21:25:35 21:37:07 55° 246° (WSW) 21:48:04 29.354- 29.394
DELFI C3 21 Aug 21:29:48 21:33:40 50° 72° (ENE) 21:37:35 145.870
ZACube-1 21 Aug 21:31:02 21:34:36 27° 265° (W) 21:38:11 437.345
AO-73 21 Aug 21:52:18 21:55:18 19° 268° (W) 21:58:18 145.935
EO-88 21 Aug 21:55:35 21:59:08 58° 73° (ENE) 22:02:45 145.990 - 145.960
STRAND 1 21 Aug 22:10:17 22:14:15 23° 299° (WNW) 22:18:13 437.568
ESTCUBE 1 21 Aug 22:11:05 22:13:16 13° 57° (ENE) 22:15:28 437.505/2401.250
PRISM 21 Aug 22:11:33 22:13:07 12° 88° (E) 22:14:40 437.425
FO-29 21 Aug 22:18:01 22:23:29 48° 98° (E) 22:28:32 435.910
UNISAT 6 21 Aug 22:24:10 22:27:46 25° 94° (E) 22:31:23 437.425
Max Valier Satellite 21 Aug 22:37:53 22:41:13 34° 263° (W) 22:44:36 145.860
SO-50 21 Aug 22:39:03 22:42:06 18° 112° (ESE) 22:45:09 436.795
TIGRISAT 21 Aug 22:58:32 23:02:44 50° 100° (E) 23:06:59 435.000
DELFI C3 21 Aug 23:06:14 23:08:44 16° 270° (W) 23:11:15 145.870
PCSat 21 Aug 23:09:17 23:14:37 61° 118° (ESE) 23:19:59 145.827
LO-87 21 Aug 23:21:50 23:25:26 84° 76° (ENE) 23:29:01 145.935 - 145.965
EO-88 21 Aug 23:31:50 23:33:11 12° 271° (W) 23:34:31 145.990 - 145.960
AIST 2D 21 Aug 23:39:31 23:42:03 18° 92° (E) 23:44:35 435.315
RS-15 21 Aug 23:42:38 23:46:24 12° 270° (W) 23:50:08 29.354- 29.394
PRISM 21 Aug 23:44:46 23:48:54 73° 287° (WNW) 23:52:59 437.425
ESTCUBE 1 21 Aug 23:44:53 23:49:24 87° 261° (W) 23:53:58 437.505/2401.250
SPROUT 21 Aug 23:46:41 23:50:17 28° 66° (ENE) 23:53:54 437.525
VELOX 1 21 Aug 23:47:36 23:51:15 25° 64° (ENE) 23:54:53 145.980
UNISAT 6 22 Aug 00:00:36 00:04:33 36° 292° (WNW) 00:08:33 437.425
50 SAT 22 Aug 00:02:02 00:02:27 10° 60° (ENE) 00:02:53 437.505
FO-29 22 Aug 00:03:35 00:08:19 28° 300° (WNW) 00:12:45 435.910
NANOSAT C BR1 22 Aug 00:17:11 00:20:17 20° 92° (E) 00:23:20 145.865
SO-50 22 Aug 00:17:35 00:22:04 67° 310° (NW) 00:26:36 436.795
POLYITAN 1 22 Aug 00:22:42 00:26:11 24° 94° (E) 00:29:38 437.675
M-CUBED/EXP-1 PRIME 22 Aug 00:32:59 00:37:05 37° 102° (ESE) 00:40:53 437.505
TIGRISAT 22 Aug 00:36:02 00:39:07 19° 297° (WNW) 00:42:13 435.000
QB50P2 22 Aug 00:37:36 00:41:33 38° 98° (E) 00:45:29 145.880/145.840
EO-79 22 Aug 00:37:55 00:41:48 34° 97° (E) 00:45:39 145.935-145.965
NO-84 22 Aug 00:53:11 00:54:14 11° 131° (SE) 00:55:16 435.350 FM
PCSat 22 Aug 00:53:40 00:58:24 30° 319° (NW) 01:03:09 145.827
UKube-1 22 Aug 00:57:28 01:01:04 26° 64° (ENE) 01:04:41 .
BUGSAT 1 22 Aug 01:02:57 01:05:15 15° 90° (E) 01:07:34 437.445
DUCHIFAT 1 22 Aug 01:06:20 01:10:27 55° 100° (E) 01:14:34 145.980
AIST 2D 22 Aug 01:12:06 01:15:21 34° 290° (WNW) 01:18:36 435.315
DX 1 22 Aug 01:20:43 01:25:03 64° 72° (ENE) 01:29:25 434.975-435.025
SPROUT 22 Aug 01:22:15 01:26:06 32° 263° (W) 01:29:58 437.525
VELOX 1 22 Aug 01:23:18 01:27:30 40° 262° (W) 01:31:43 145.980
ESTCUBE 1 22 Aug 01:26:02 01:26:54 10° 274° (W) 01:27:46 437.505/2401.250
50 SAT 22 Aug 01:31:11 01:34:36 70° 258° (WSW) 01:38:01 437.505
Gurwin Techsat 1B 22 Aug 01:32:55 01:34:26 11° 85° (E) 01:35:56 435.225
Oscar 19 22 Aug 01:47:19 01:51:24 23° 92° (E) 01:55:27 437.125/150
NANOSAT C BR1 22 Aug 01:52:12 01:56:11 44° 290° (WNW) 02:00:10 145.865
BEESAT 22 Aug 01:55:27 01:58:14 16° 57° (ENE) 02:01:02 436.000
POLYITAN 1 22 Aug 01:58:12 02:02:02 35° 292° (WNW) 02:05:53 437.675
SO-50 22 Aug 02:00:22 02:03:22 17° 332° (NNW) 02:06:23 436.795
M-CUBED/EXP-1 PRIME 22 Aug 02:07:35 02:11:20 27° 302° (WNW) 02:14:52 437.505
YUBILEINY 22 Aug 02:13:30 02:21:19 35° 65° (ENE) 02:29:03 435.215
QB50P2 22 Aug 02:13:46 02:17:10 24° 296° (WNW) 02:20:32 145.880/145.840
EO-79 22 Aug 02:13:56 02:17:25 26° 295° (WNW) 02:20:53 145.935-145.965
NO-84 22 Aug 02:28:18 02:31:11 84° 324° (NW) 02:34:02 435.350 FM
ITUPSAT 1 22 Aug 02:29:05 02:33:08 29° 64° (ENE) 02:37:13 437.325
UKube-1 22 Aug 02:32:57 02:36:57 36° 262° (W) 02:40:59 .
BUGSAT 1 22 Aug 02:37:01 02:40:58 55° 288° (WNW) 02:44:54 437.445
PCSat 22 Aug 02:41:49 02:43:40 12° 344° (NNW) 02:45:31 145.827
DUCHIFAT 1 22 Aug 02:42:59 02:45:44 17° 299° (WNW) 02:48:30 145.980
AO-7 22 Aug 02:47:34 02:49:52 11° 82° (E) 02:52:08 .
DX 1 22 Aug 02:59:06 03:01:40 15° 270° (W) 03:04:13 434.975-435.025
MOZHAYETS 4 22 Aug 03:03:21 03:07:41 47° 70° (ENE) 03:12:04
Gurwin Techsat 1B 22 Aug 03:09:55 03:15:17 76° 104° (ESE) 03:20:35 435.225
Oscar 19 22 Aug 03:25:57 03:31:03 55° 290° (WNW) 03:36:07 437.125/150
CUBESAT XI-V 22 Aug 03:27:47 03:31:14 21° 62° (ENE) 03:34:42 437.345
BEESAT 22 Aug 03:30:39 03:35:24 80° 256° (WSW) 03:40:12 436.000
ITUPSAT 1 22 Aug 04:06:25 04:10:50 39° 262° (W) 04:15:18 437.325
NO-84 22 Aug 04:06:33 04:08:53 22° 348° (NNW) 04:11:15 435.350 FM
YUBILEINY 22 Aug 04:10:08 04:18:41 62° 268° (W) 04:27:10 435.215
PCSat 22 Aug 04:28:43 04:29:45 10° 11° (N) 04:30:47 145.827
